EW7244 Weather Reports


time (UTC)temp
C
wind
direction
speed
KPH
gust
KPH
rain 1hr
cm
rain 24hr
cm
rain mn
cm
humidity
%
barometer
mb
20260905123051 29 146 0.0 0.0 0.00 0.00 0.00 53 1011.8
20260905121516 28 148 0.0 0.0 0.00 0.00 0.00 52 1011.9
20260905120053 28 266 0.0 0.0 0.00 0.00 0.00 55 1012.0
20260905114546 28 103 0.0 0.0 0.00 0.00 0.00 55 1012.2
20260905113039 27 148 0.0 0.0 0.00 0.00 0.00 56 1012.2
20260905111559 27 82 0.0 0.0 0.00 0.00 0.00 57 1012.3
20260905110048 26 156 0.0 0.0 0.00 0.00 0.00 61 1012.3
20260905104540 26 150 0.0 0.0 0.00 0.00 0.00 63 1012.6
20260905103051 25 47 0.0 0.0 0.00 0.00 0.00 66 1012.5
20260905101550 25 93 0.0 0.0 0.00 0.00 0.00 66 1012.5
20260905100039 25 144 0.0 0.0 0.00 0.00 0.00 68 1012.7
20260905094557 24 161 0.0 0.0 0.00 0.00 0.00 69 1012.9
20260905093053 23 90 0.0 0.0 0.00 0.00 0.00 70 1012.9
20260905091552 23 92 0.0 0.0 0.00 0.00 0.00 74 1012.9
20260905090059 22 117 0.0 0.0 0.00 0.00 0.00 75 1012.9
20260905084608 22 116 0.0 0.0 0.00 0.00 0.00 75 1012.9
20260905083051 22 111 0.0 0.0 0.00 0.00 0.00 75 1012.6
20260905081544 22 145 0.0 0.0 0.00 0.00 0.00 75 1012.7
20260905080128 22 116 0.0 0.0 0.00 0.00 0.00 76 1012.5
20260905074541 21 118 0.0 0.0 0.00 0.00 0.00 78 1012.5
20260905073026 21 151 0.0 0.0 0.00 0.00 0.00 79 1012.4
20260905071512 20 115 0.0 0.0 0.00 0.00 0.00 80 1012.3
20260905070014 21 107 0.0 0.0 0.00 0.00 0.00 79 1012.4
20260905064507 20 130 0.0 0.0 0.00 0.00 0.00 79 1012.3
20260905063044 20 15 0.0 0.0 0.00 0.00 0.00 83 1012.5
20260905061558 19 78 0.0 0.0 0.00 0.00 0.00 84 1012.4
20260905060057 18 44 0.0 0.0 0.00 0.00 0.00 87 1012.6
20260905054552 18 355 0.0 0.0 0.00 0.00 0.00 88 1012.4
20260905053110 17 346 0.0 0.0 0.00 0.00 0.00 87 1012.4
20260905051556 17 242 0.0 0.0 0.00 0.00 0.00 88 1012.4
20260905050044 17 242 0.0 0.0 0.00 0.00 0.00 88 1012.0
20260905044544 17 242 0.0 0.0 0.00 0.00 0.00 88 1011.9
20260905043107 17 242 0.0 0.0 0.00 0.00 0.00 87 1012.0
20260905041547 17 242 0.0 0.0 0.00 0.00 0.00 87 1012.1
20260905040049 18 242 0.0 0.0 0.00 0.00 0.00 86 1012.2
20260905034600 18 242 0.0 0.0 0.00 0.00 0.00 86 1012.2
20260905033050 18 242 0.0 0.0 0.00 0.00 0.00 86 1012.1
20260905031548 18 242 0.0 0.0 0.00 0.00 0.00 86 1012.2
20260905030047 18 242 0.0 0.0 0.00 0.00 0.00 85 1012.2
20260905024543 18 242 0.0 0.0 0.00 0.00 0.00 85 1012.2
20260905023022 18 242 0.0 0.0 0.00 0.00 0.00 84 1012.4
20260905021525 18 242 0.0 0.0 0.00 0.00 0.00 84 1012.2
20260905020054 19 242 0.0 0.0 0.00 0.00 0.00 84 1012.2
20260905014614 19 242 0.0 0.0 0.00 0.00 0.00 84 1012.3
20260905013047 18 242 0.0 0.0 0.00 0.00 0.00 84 1012.4
20260905011620 19 242 0.0 0.0 0.00 0.00 0.00 84 1012.4
20260905010053 19 242 0.0 0.0 0.00 0.00 0.00 84 1012.5
20260905004538 19 242 0.0 0.0 0.00 0.00 0.00 83 1012.6
20260905003053 19 242 0.0 0.0 0.00 0.00 0.00 82 1012.6
20260905001550 19 242 0.0 0.0 0.00 0.00 0.00 82 1012.7
20260904234554 20 242 0.0 0.0 0.00 0.00 0.00 82 1013.0
20260904233103 20 242 0.0 0.0 0.00 0.00 0.00 82 1013.0
20260904231546 20 242 0.0 0.0 0.00 0.00 0.00 82 1013.0
20260904230043 20 242 0.0 0.0 0.00 0.00 0.00 80 1013.1
20260904224554 20 242 0.0 0.0 0.00 0.00 0.00 81 1013.2
20260904223051 20 241 0.0 0.0 0.00 0.00 0.00 81 1013.2
20260904221542 21 241 0.0 0.0 0.00 0.00 0.00 79 1013.2
20260904220104 21 241 0.0 0.0 0.00 0.00 0.00 78 1013.0
20260904214546 21 241 0.0 0.0 0.00 0.00 0.00 77 1013.0
20260904213024 21 241 0.0 0.0 0.00 0.00 0.00 76 1013.0
20260904211518 21 241 0.0 0.0 0.00 0.00 0.00 75 1013.1
20260904210059 21 241 0.0 0.0 0.00 0.00 0.00 74 1013.1
20260904204544 21 241 0.0 0.0 0.00 0.00 0.00 75 1013.2
20260904203044 22 241 0.0 0.0 0.00 0.00 0.00 73 1013.1
20260904201549 22 240 0.0 0.0 0.00 0.00 0.00 73 1013.2
20260904200053 22 240 0.0 0.0 0.00 0.00 0.00 72 1013.2
20260904194548 22 240 0.0 0.0 0.00 0.00 0.00 72 1013.1
20260904193042 22 240 0.0 0.0 0.00 0.00 0.00 70 1013.2
20260904191554 23 240 0.0 0.0 0.00 0.00 0.00 67 1013.2
20260904190049 23 239 0.0 0.0 0.00 0.00 0.00 67 1013.0
20260904184544 23 239 0.0 0.0 0.00 0.00 0.00 66 1013.0
20260904183102 23 239 0.0 0.0 0.00 0.00 0.00 68 1012.8
20260904181554 23 239 0.0 0.0 0.00 0.00 0.00 68 1012.5
20260904180058 23 239 0.0 0.0 0.00 0.00 0.00 68 1012.4
20260904174545 24 239 0.0 0.0 0.00 0.00 0.00 67 1012.3
20260904173115 24 239 0.0 0.0 0.00 0.00 0.00 64 1012.3
20260904171557 25 239 0.0 0.0 0.00 0.00 0.00 65 1012.4
20260904170051 25 239 0.0 0.0 0.00 0.00 0.00 63 1012.5
20260904164555 25 239 0.0 0.0 0.00 0.00 0.00 62 1012.4
20260904163042 26 238 0.0 0.0 0.00 0.00 0.00 61 1012.5
20260904161522 26 238 0.0 0.0 0.00 0.00 0.00 60 1012.5
20260904160108 26 238 0.0 0.0 0.00 0.00 0.00 58 1012.5
20260904154555 27 237 0.0 0.0 0.00 0.00 0.00 54 1012.5
20260904153046 28 180 0.0 0.0 0.00 0.00 0.00 49 1012.6
20260904151628 29 143 0.0 0.0 0.00 0.00 0.00 48 1012.7
20260904150037 29 165 0.0 0.0 0.00 0.00 0.00 48 1012.7
20260904144523 29 151 0.0 0.0 0.00 0.00 0.00 49 1013.0
20260904143031 30 134 0.0 0.0 0.00 0.00 0.00 47 1013.0
20260904141523 29 103 0.0 0.0 0.00 0.00 0.00 48 1013.1
20260904140024 29 95 0.0 0.0 0.00 0.00 0.00 49 1013.2
20260904134517 28 154 0.0 0.0 0.00 0.00 0.00 51 1013.4
20260904133025 28 152 0.0 0.0 0.00 0.00 0.00 49 1013.5
20260904131514 29 269 0.0 0.0 0.00 0.00 0.00 49 1013.5
20260904130012 30 91 0.0 0.0 0.00 0.00 0.00 47 1013.6
20260904124511 30 105 0.0 0.0 0.00 0.00 0.00 47 1013.7